STARLINK-37004, 68089

Orbit data source: Space-Track

STARLINK-37004, 68089 is a payload satellite owned by SpaceX/Seattle (US) in LEO that was launched on Wed, 04 Mar 2026 UTC via an FALCON 9 launch vehicle from the Air Force Eastern Test Range (AFETR). Payload-class satellites include a variety of spacecraft equipped with specific instruments for various scientific and technological missions. These include communications satellites like Starlink; space stations such as the ISS; scientific satellites like the Hubble; Earth observation satellites from companies like Planet Labs, Umbra, and HawkEye 360; GPS; miniature CubeSats for education and research; and military/defense satellites.

Loading next visibility...
Identifier
68089, 2026-042W
Orbit
LEO
Country
Flag of USUS
Related business
Manufacturer
SpaceX/Seattle
Mission
Operational Commercial Communications
Bus & Motor
STARLINK V2MO, Unknown motor
Mass
575 kg wet, ~530 kg dry
Launch date (UTC)
2026-03-04 (2 months ago)
Launch vehicle
FALCON 9
Launch site
Air Force Eastern Test Range (AFETR)
Object type
Payload
Rocket body
Debris
Shape & HBR
Box + 2 Pan, 17.7 m
Radar Cross Section
36.964 m²

Expand to show TLE details & history
Last TLE update: 6 hours ago

TLE from 6 hours ago
0 STARLINK-37004
1 68089U 26042W   26119.50002315  .00047059  00000-0  13975-2 0  9992
2 68089  53.1586 303.1957 0001209  94.4261  51.9410 15.34346958  5886
Epoch: 2026-04-29T12:00Z
TLE epoch observation values (Epoch: 2026-04-29T12:00:02.000Z)
Latitude
26.38022°
Longitude
64.04021°
Altitude
463.513 km
Speed
7.639 km/s
True Right ascension
06h 46m 02s
True Declination
26° 14' 16"
Sunlit
Object was in daylight at epoch
Visualization orbit readout
Latitude
Unknown
Longitude
Unknown
Altitude
Unknown
Speed
Unknown
Apparent Right ascension
Unknown
Apparent Declination
Unknown
Sunlit
N/A
Visualization observer readout
Local Sidereal Time
01:12:38
Azimuth
Unknown
Elevation
Unknown
Doppler factor
Unknown
Orbital elements
Apogee altitude
463.945 km
Perigee altitude
462.291 km
Semi-major axis
6,841.255 km
Eccentricity
0.00012
Inclination
53.1586°
RAAN
303.1957°
Arg. of periapsis
94.4261°
True anomaly
51.95191°
Mean anomaly
51.941°
Eccentric anomaly
51.94645°
Mean motion
3.83565 °/min
Orbital period
93.86 mins
BSTAR
0.0013975
Loading maneuver chart data...
Computing Atmospheric mass density...
Loading historical data...
Loading historical data...
Loading historical data...
Loading historical data...
Loading historical data...
Loading historical data...
Loading historical data...

Documentation

Showing up to 5 results
|